FENGYUN 1C DEB, 30320

Orbit data source: Space-Track

FENGYUN 1C DEB, 30320 is space debris in SSO originally from a launch on Mon, 10 May 1999 UTC launched from the Taiyaun Space Center, China (TSC). Fengyun 1C debris stems from the Chinese weather satellite Fengyun-1C, which was intentionally destroyed by a Chinese anti-satellite missile in 2007. This event dramatically increased the amount of space debris, with thousands of trackable fragments posing hazards to satellites and human spaceflight. The Fengyun 1C debris cloud has become a focal point in discussions about space sustainability and the need for international regulations to prevent the creation of new debris.

Loading next visibility...
FENGYUN 1C DEB details
Identifier
30320, 1999-025AAH
Orbit
SSO
Last TLE update11 hours ago
Origin
Flag of CNCASC (CN / PRC)
ManufacturerUnknown
MissionSpacecraft
Bus & MotorUnknown
MassUnknown
Launch date (UTC)
1999-05-10 (26 years ago)
Launch vehicleUnknown
Launch site
Taiyaun Space Center, China (TSC)
Object type
Payload
Rocket body
Debris
Shape & HBRUnknown
Radar Cross SectionSmall (<0.1 m²)

Expand to show TLE details & history

TLE from 11 hours ago
0 FENGYUN 1C DEB
1 30320U 99025AAH 24356.12424819  .00000200  00000-0  16677-3 0  9996
2 30320  99.2364  47.9474 0086464 190.7170 197.3095 13.98254991914325
Epoch: 2024-12-21T02:58Z
Definitive object data (Epoch: 2024-12-21T02:58:55.043Z)
Latitude27.38451°
Longitude-91.76882°
Altitude963.288 km
Speed7.342 km/s
True Right ascension02h 52m 33s
True Declination27° 14' 54"
Sunlit
Object was in full shadow at TLE epoch
Visualization TLE readout
Latitude-79.9075°
Longitude28.17323°
Altitude912.518 km
Speed7.403 km/s
Apparent Right ascension02h 13m 29s
Apparent Declination-70° 28' 50"
Sunlit
Object is in daylight
Visualization observer readout
Local Sidereal Time13:27:03
Azimuth187.468° SSW
Elevation-58.85°
Doppler factor1
Orbital elements
Apogee altitude959.961 km
Perigee altitude834.153 km
Semi-major axis7,275.194 km
Eccentricity0.0086464
Inclination99.2364°
RAAN47.9474°
Arg. of periapsis190.717°
True anomaly197.01772°
Mean anomaly197.3095°
Eccentric anomaly197.16331°
Mean motion3.49765 °/min
BSTAR0.00016677
Orbital period102.93 mins
Loading maneuver chart data...
Loading historical data...
Loading historical data...
Loading historical data...
Loading historical data...
Loading historical data...
Loading historical data...
Loading historical data...

FENGYUN 1C DEB Visibility forecast

Observer location: undefined°, undefined

Span
Click to sort rows by Start time (UTC) header in descending order
Start Az.
Max El. time (UTC)
Max El. Az.
Max El.
End time (UTC)
End Az.
8 mins2024-12-21 15:28:56.446Z45.79° ENE2024-12-21 15:32:56.446Z93.94° ESE20.316°2024-12-21 15:36:56.446Z142.384° SSE
9 mins2024-12-21 17:10:56.446Z356.9° N2024-12-21 17:14:56.446Z286.431° WNW36.417°2024-12-21 17:19:56.446Z218.282° SW
9 mins2024-12-22 03:01:56.446Z133.921° SE2024-12-22 03:05:56.446Z65.762° ENE36.539°2024-12-22 03:10:56.446Z359.24° N
8 mins2024-12-22 04:43:56.446Z219.218° SW2024-12-22 04:47:56.446Z270.248° WNW23.14°2024-12-22 04:51:56.446Z316.285° NNW
|